Wind_Speed
26 26 25 25 25 25 26 26 26 26 25 25 25 26 26 26 26 26 26 27 27 27 27 29 30 31 32 32 33 33 33 33 32 32 31 31 31 31
25 25 24 24 24 24 24 24 24 24 23 22 22 23 24 24 24 24 25 25 25 26 26 27 29 30 31 32 32 32 32 32 32 32 32 32 31 31
23 22 22 21 21 21 21 21 22 22 21 21 21 22 22 22 22 22 22 23 23 24 25 25 26 28 29 30 30 31 31 31 32 32 32 32 31 32
20 19 18 18 18 19 18 18 18 18 19 20 20 20 20 20 20 20 21 21 21 22 23 24 24 25 26 27 27 28 28 28 29 29 30 30 30 31
18 17 16 16 17 16 16 16 16 17 18 19 18 18 18 19 19 19 19 20 20 21 21 22 22 22 23 24 24 25 25 25 26 26 27 28 29 29
17 17 16 15 14 14 15 16 16 16 17 17 16 16 16 17 17 18 18 19 19 18 18 19 21 21 21 22 22 23 23 23 24 25 25 26 27 28
16 15 14 13 13 14 14 14 14 15 15 14 15 15 15 15 15 16 16 16 16 16 16 16 17 18 19 19 20 21 21 22 22 23 24 25 25 26
15 14 14 13 13 13 13 13 13 13 13 13 13 14 15 14 14 13 14 14 14 15 15 15 15 16 17 18 19 19 20 20 21 22 23 24 24 25
14 14 13 13 12 12 12 12 13 13 13 14 13 13 14 14 13 13 13 12 13 13 14 14 14 14 14 15 16 17 17 18 20 21 22 21 22 23
15 14 13 12 12 12 12 12 12 13 13 13 13 13 13 13 12 12 13 12 12 11 12 13 13 13 13 13 14 14 16 17 18 19 20 21 21 21
15 14 14 13 12 13 12 12 12 12 12 12 11 12 12 11 10 10 10 11 11 11 11 11 12 13 14 14 14 14 15 16 17 18 18 19 20 20
15 15 14 14 14 13 13 13 12 12 12 11 11 11 11 10 10 9 9 10 10 11 11 12 12 12 13 13 14 15 15 16 17 17 18 19 20 21
15 15 14 14 14 14 14 13 12 13 13 12 11 11 11 10 10 10 10 10 10 11 11 11 12 13 13 14 15 16 16 16 17 18 18 19 20 21
16 15 14 14 14 14 14 13 13 13 12 12 12 12 12 11 11 10 11 11 11 12 13 13 13 14 15 16 16 16 17 17 18 19 20 20 21 21
16 16 15 15 15 15 15 15 14 13 13 13 13 13 13 12 12 12 12 12 12 13 14 14 15 15 17 18 18 19 19 19 20 21 21 22 22 22
17 17 17 16 16 15 15 16 16 15 15 14 14 13 13 13 13 14 14 14 14 14 14 14 16 17 18 19 19 20 21 21 21 22 22 23 23 24
18 18 18 17 17 17 17 17 17 17 17 16 15 14 14 14 15 15 16 16 16 15 16 16 17 18 19 19 20 20 21 21 22 23 24 24 25 25
19 19 19 19 18 18 18 18 18 19 18 17 17 17 17 17 17 17 17 17 17 17 18 19 19 20 20 20 21 22 23 24 24 25 26 26 26 26
20 20 20 21 20 20 20 20 20 20 19 18 18 18 18 19 19 19 19 19 19 19 20 21 22 22 22 22 22 24 24 25 26 26 27 27 27 28
21 21 22 22 22 22 22 22 21 21 20 20 20 20 20 20 20 21 21 21 21 21 22 23 24 24 25 25 25 25 26 27 27 28 29 29 29 29
23 23 24 24 23 23 23 23 23 22 22 22 22 22 22 22 23 23 23 23 23 23 23 23 24 26 27 27 27 27 27 28 29 30 30 30 30 30
24 25 25 25 25 25 24 24 24 24 24 24 24 24 25 25 25 25 25 25 25 25 25 26 26 27 28 28 28 28 28 29 30 30 30 30 30 30
26 27 27 27 27 27 26 26 26 26 26 26 27 27 28 28 27 28 28 28 28 28 28 29 29 29 28 28 29 29 30 30 30 31 30 30 31 32
Wind_Direction
299 296 293 291 290 287 283 279 277 277 279 280 277 275 272 269 268 267 266 266 264 262 260 259 257 256 255 254 254 254 254 253 254 254 254 254 254 254
299 296 294 293 293 290 287 283 280 278 278 278 277 274 273 272 270 270 269 268 265 263 262 261 259 258 257 254 253 254 255 253 252 253 254 255 254 254
304 299 295 293 293 292 289 284 281 280 278 278 280 278 276 274 273 273 271 268 266 264 264 263 261 259 257 254 253 253 253 252 251 252 253 254 255 255
308 302 299 297 296 295 293 288 284 282 281 281 281 280 277 277 276 274 273 271 267 266 265 263 263 261 258 255 255 254 254 254 252 253 253 253 255 256
315 311 305 302 301 297 294 292 291 291 287 286 285 283 281 280 278 275 273 272 268 266 265 263 262 260 258 255 254 255 255 255 255 255 255 255 255 257
318 316 313 311 309 306 302 300 298 295 293 290 286 288 287 284 279 275 275 273 268 267 265 263 261 259 257 255 254 254 255 255 255 255 255 256 256 257
323 321 319 318 316 312 308 307 306 303 298 297 295 294 292 286 282 277 274 271 270 268 267 263 258 257 256 256 254 254 255 256 256 255 256 256 256 258
331 331 328 325 320 317 317 316 317 314 308 304 301 299 295 291 285 280 276 273 270 267 266 266 263 261 262 262 258 255 255 256 257 259 260 258 257 257
333 332 331 331 325 323 321 318 319 316 312 309 304 304 303 297 289 282 280 277 273 270 265 263 264 263 261 261 259 258 256 257 260 262 262 261 260 259
335 332 329 325 326 324 324 320 320 321 319 315 311 309 307 303 294 291 287 279 275 272 269 267 265 265 263 263 264 262 260 261 261 262 262 261 263 263
339 335 331 330 322 322 324 321 321 322 322 322 322 318 313 310 306 300 291 282 279 278 275 273 268 267 267 267 267 265 265 264 262 262 263 264 264 265
339 339 334 329 328 325 323 322 320 319 318 318 319 321 318 312 307 305 299 290 284 283 279 277 274 269 267 269 270 267 267 267 266 267 267 267 266 266
338 336 335 330 328 329 328 322 321 320 316 315 313 314 314 312 309 308 305 299 292 287 281 276 274 272 271 271 273 272 270 269 269 268 269 269 270 270
342 339 338 336 333 331 330 329 322 320 320 316 312 309 307 306 304 302 300 299 293 287 283 279 278 275 275 273 273 274 271 271 271 271 270 272 273 272
342 341 339 337 335 332 331 329 325 320 317 314 308 306 306 304 302 298 295 291 287 286 283 282 281 281 282 281 279 277 277 277 276 274 273 273 273 272
338 336 335 333 332 331 329 326 321 318 315 313 310 306 305 302 299 298 295 293 288 286 285 286 285 284 284 283 282 280 279 279 278 277 274 274 274 274
334 334 332 329 328 328 326 323 321 318 314 310 307 303 302 302 298 294 292 290 287 286 283 283 284 285 284 284 282 280 279 279 279 278 277 275 274 275
332 332 330 328 326 324 323 323 321 319 315 311 305 301 298 297 297 296 294 292 287 284 284 283 282 282 283 283 283 283 282 281 281 281 281 278 276 276
331 330 328 327 326 324 324 322 319 316 313 310 308 303 299 296 295 295 294 292 289 286 285 284 283 283 284 283 283 284 284 283 282 281 282 281 278 277
328 326 326 325 325 325 324 322 320 317 314 310 306 304 300 297 296 295 293 291 290 288 287 285 283 284 284 283 284 284 284 284 284 284 284 282 279 278
328 326 324 324 323 321 320 319 318 316 313 310 307 303 300 298 296 294 293 292 291 289 288 287 285 285 284 284 285 284 284 284 285 285 285 283 281 280
328 327 326 324 323 321 320 318 316 313 310 307 305 303 300 298 295 293 291 291 290 289 288 287 287 286 285 284 285 285 284 284 285 285 284 284 284 284
328 327 324 323 323 321 318 316 314 313 310 308 305 302 300 298 295 293 291 290 288 288 287 287 287 287 286 284 284 285 285 284 284 286 285 284 283 283
Height
5744 5741 5739 5737 5735 5733 5732 5731 5731 5730 5730 5729 5729 5728 5727 5727 5728 5728 5729 5729 5730 5732 5733 5735 5736 5738 5740 5742 5745 5747 5749 5751 5754 5756 5758 5760 5762 5764
5737 5735 5732 5730 5728 5727 5725 5724 5724 5723 5723 5723 5722 5722 5721 5721 5721 5721 5721 5722 5723 5725 5726 5727 5728 5730 5731 5733 5736 5738 5740 5743 5745 5747 5749 5752 5754 5756
5732 5729 5726 5724 5723 5721 5720 5718 5718 5717 5717 5716 5716 5716 5715 5715 5715 5715 5715 5716 5717 5718 5719 5720 5721 5722 5723 5725 5727 5729 5731 5734 5736 5739 5741 5743 5745 5748
5727 5724 5722 5720 5718 5716 5715 5713 5713 5712 5711 5711 5710 5710 5710 5709 5709 5709 5709 5709 5710 5711 5712 5713 5714 5715 5716 5717 5719 5721 5724 5726 5728 5730 5732 5735 5737 5739
5723 5720 5718 5716 5714 5712 5711 5709 5708 5707 5706 5706 5705 5705 5704 5704 5703 5703 5703 5703 5704 5704 5705 5706 5707 5708 5709 5711 5712 5714 5716 5719 5720 5722 5724 5726 5728 5730
5720 5717 5715 5712 5711 5709 5708 5706 5705 5704 5702 5702 5701 5700 5699 5698 5698 5698 5698 5698 5698 5699 5699 5700 5701 5702 5703 5705 5706 5708 5710 5711 5713 5715 5717 5718 5720 5722
5717 5714 5712 5710 5708 5707 5705 5703 5702 5700 5699 5698 5697 5696 5695 5694 5694 5693 5693 5692 5693 5693 5694 5695 5696 5697 5698 5699 5700 5702 5703 5705 5706 5708 5709 5711 5713 5714
5715 5712 5710 5708 5706 5704 5702 5701 5699 5698 5696 5695 5694 5692 5691 5690 5689 5689 5688 5688 5688 5689 5689 5690 5690 5691 5693 5694 5695 5696 5698 5699 5700 5701 5702 5704 5705 5706
5714 5711 5708 5706 5704 5702 5700 5699 5697 5695 5694 5692 5691 5690 5688 5687 5686 5685 5684 5684 5684 5684 5685 5686 5686 5687 5688 5689 5690 5691 5692 5693 5694 5695 5696 5697 5698 5699
5712 5709 5706 5704 5702 5700 5699 5697 5695 5693 5692 5690 5689 5687 5686 5684 5682 5682 5681 5681 5681 5681 5681 5682 5682 5683 5684 5685 5685 5686 5687 5688 5689 5689 5690 5691 5692 5692
5710 5707 5705 5703 5701 5698 5696 5695 5693 5692 5690 5688 5686 5685 5683 5681 5680 5679 5678 5678 5678 5678 5678 5678 5679 5679 5680 5681 5681 5681 5682 5683 5683 5684 5684 5685 5685 5686
5709 5706 5703 5701 5699 5697 5695 5693 5691 5690 5688 5686 5685 5683 5681 5679 5678 5677 5676 5675 5675 5675 5675 5675 5675 5675 5676 5677 5677 5677 5677 5678 5678 5678 5678 5679 5679 5679
5707 5704 5702 5699 5697 5695 5693 5691 5689 5687 5685 5684 5682 5681 5679 5677 5676 5674 5673 5672 5672 5672 5671 5671 5671 5671 5672 5672 5672 5672 5672 5672 5673 5673 5672 5672 5672 5672
5706 5703 5700 5698 5695 5693 5691 5688 5686 5685 5683 5681 5679 5678 5677 5675 5674 5672 5671 5670 5669 5668 5668 5667 5667 5667 5667 5667 5667 5667 5667 5667 5667 5667 5666 5666 5666 5665
5705 5702 5699 5696 5694 5691 5689 5686 5684 5682 5680 5678 5677 5675 5674 5672 5671 5669 5668 5667 5666 5665 5664 5663 5663 5662 5662 5662 5661 5661 5661 5661 5660 5660 5660 5659 5659 5658
5703 5700 5697 5695 5692 5689 5686 5684 5681 5679 5677 5675 5673 5672 5670 5669 5667 5666 5665 5663 5662 5661 5660 5659 5658 5658 5657 5656 5656 5655 5655 5654 5653 5652 5652 5651 5651 5650
5701 5698 5695 5693 5690 5687 5684 5681 5678 5676 5674 5671 5669 5668 5666 5665 5663 5662 5660 5659 5658 5657 5656 5655 5653 5652 5651 5651 5649 5649 5648 5647 5646 5645 5644 5643 5643 5642
5699 5696 5693 5690 5687 5683 5680 5678 5675 5672 5669 5667 5665 5663 5662 5660 5658 5657 5655 5653 5652 5651 5650 5649 5647 5646 5645 5644 5643 5642 5641 5640 5639 5637 5636 5635 5634 5634
5696 5693 5690 5686 5683 5680 5676 5673 5670 5667 5665 5662 5660 5658 5656 5655 5653 5651 5649 5648 5646 5645 5643 5642 5640 5639 5638 5637 5637 5635 5633 5632 5630 5629 5627 5626 5626 5625
5693 5690 5686 5682 5679 5675 5672 5669 5666 5663 5660 5657 5655 5652 5650 5648 5647 5645 5643 5641 5639 5638 5636 5635 5633 5631 5630 5629 5628 5627 5625 5623 5621 5620 5618 5617 5616 5615
5690 5686 5682 5678 5674 5671 5667 5664 5661 5657 5654 5652 5649 5646 5644 5642 5640 5638 5636 5634 5632 5630 5629 5627 5625 5623 5621 5620 5619 5618 5616 5614 5612 5610 5608 5607 5605 5604
5685 5681 5677 5673 5669 5665 5662 5659 5655 5652 5649 5645 5643 5640 5637 5634 5632 5630 5628 5626 5624 5622 5620 5618 5617 5615 5613 5611 5609 5608 5606 5605 5603 5600 5598 5596 5594 5593
5681 5676 5672 5668 5664 5660 5656 5652 5649 5645 5642 5638 5635 5632 5629 5626 5624 5621 5619 5617 5615 5613 5611 5609 5607 5605 5603 5601 5599 5598 5596 5594 5592 5590 5588 5586 5584 5583